Flag for Hungary Weather past 2 weeks in Sopron, Hungary

Now
46 °F

Cool.


Feels Like: 42 °F
Forecast: 35 / 47 °F
Wind: 7 mph from Northwest

Location: Eisenstadt

Current Time: Mar 6, 2015 at 3:49:36 PM

Latest Report: Mar 6, 2015 at 3:00 PM


Visibility: N/A

Pressure: 30.53 "Hg

Humidity: 43%

Dew point: 24 °F

Location of SopronLocation

Historic Weather in Sopron — Graph

°F

Sopron temperature yesterday

Maximum temperature yesterday: 45 °F (at 1:00 PM)
Minimum temperature yesterday: 34 °F (at 6:00 AM)
Average temperature yesterday: 41 °F

Past Weeks' High & Low Weather Summary

 TemperatureHumidityPressure
High57 °F (Feb 21, 3:00 PM)100% (Feb 20, 10:00 AM)30.56 "Hg (Feb 20, 10:00 AM)
Low27 °F (Feb 20, 5:00 AM)30% (Feb 21, 12:00 PM)29.57 "Hg (Feb 21, 3:00 PM)
Average41 °F72%30.00 "Hg
* Reported Feb 19 2:00 PM — Mar 6 2:00 PM, Sopron, Weather by CustomWeather, © 2015

Note: Actual official high and low records may vary slightly from our data, if they occured in-between our weather recording intervals... More about our weather records

Advertising

Sopron weather history for previous 24 hours

 ConditionsComfort  
Time TempWeatherWind HumidityBarometerVisibility
2:00 PM
Fri, Mar 6
45 °FQuite cool.5 mph48%30.54 "HgN/A
1:00 PM44 °FPartly sunny.7 mph52%30.55 "Hg7 mi
12:00 PM42 °FQuite cool.5 mph58%30.56 "HgN/A
11:00 AM43 °FQuite cool.5 mph61%30.56 "HgN/A
10:00 AM41 °FPartly sunny.6 mph63%30.56 "Hg7 mi
9:00 AM40 °FQuite cool.5 mph66%30.55 "HgN/A
8:00 AM37 °FChilly.3 mph70%30.55 "HgN/A
7:00 AM35 °FScattered clouds.3 mph71%30.54 "Hg11 mi
6:00 AM35 °FPassing clouds.3 mph68%30.52 "Hg9 mi
5:00 AM35 °FPassing clouds.2 mph70%30.51 "Hg9 mi
3:00 AM36 °FChilly.2 mph67%30.52 "HgN/A
2:00 AM35 °FChilly.2 mph68%30.52 "HgN/A
1:00 AM37 °FChilly.2 mph65%30.50 "HgN/A
12:00 AM39 °FChilly.1 mph63%30.51 "HgN/A
11:00 PM
Thu, Mar 5
39 °FChilly.3 mph63%30.50 "HgN/A
10:00 PM40 °FOvercast.5 mph66%30.47 "Hg9 mi
9:00 PM40 °FChilly.2 mph65%30.46 "HgN/A
8:00 PM41 °FQuite cool.3 mph61%30.45 "HgN/A
7:00 PM41 °FOvercast.3 mph60%30.43 "Hg9 mi
6:00 PM41 °FQuite cool.2 mph60%30.40 "HgN/A
5:00 PM43 °FQuite cool.5 mph55%30.39 "HgN/A
4:00 PM43 °FRain. Overcast.6 mph61%30.37 "Hg9 mi
3:00 PM42 °FQuite cool.5 mph63%30.37 "HgN/A
Weather by CustomWeather, © 2015

See weather overviewHow to use our weather pages